This is the latest recevied weather packets stored in our database for station/object KC1HBM. If no packets are shown the sender has not sent any weather packets the latest 10 day(s).
| Time | Temp. | Humidity | Pressure | Rain* | Wind** | Luminosity | Snow |
|---|---|---|---|---|---|---|---|
| 1778003827 | 15.56° C | 75% | 1004.1 hPa | 0 mm | - | 161 W/m² | - |
| 1778003523 | 16.11° C | 75% | 1004 hPa | 0 mm | - | 635 W/m² | - |
| 1778003220 | 16.11° C | 74% | 1004.4 hPa | 0 mm | - | 205 W/m² | - |
| 1778002915 | 16.67° C | 73% | 1004.2 hPa | 0 mm | - | 538 W/m² | - |
| 1778002613 | 17.22° C | 71% | 1004.5 hPa | 0 mm | - | 616 W/m² | - |
| 1778002310 | 16.67° C | 74% | 1004.4 hPa | 0 mm | - | 656 W/m² | - |
| 1778002007 | 16.67° C | 73% | 1004.5 hPa | 0 mm | - | 675 W/m² | - |
| 1778001704 | 16.11° C | 73% | 1004.6 hPa | 0 mm | - | 685 W/m² | - |
| 1778001404 | 16.67° C | 73% | 1004.6 hPa | 0 mm | - | 622 W/m² | - |
| 1778001102 | 16.67° C | 73% | 1004.4 hPa | 0 mm | - | 656 W/m² | - |
| 1778000798 | 17.22° C | 71% | 1004.7 hPa | 0 mm | - | 630 W/m² | - |
| 1778000495 | 17.22° C | 71% | 1005.1 hPa | 0 mm | - | 628 W/m² | - |
| 1778000190 | 18.33° C | 68% | 1005.1 hPa | 0 mm | - | 645 W/m² | - |
| 1777999886 | 17.78° C | 69% | 1005.2 hPa | 0 mm | - | 658 W/m² | - |
| 1777999581 | 18.89° C | 67% | 1004.9 hPa | 0 mm | - | 651 W/m² | - |
| 1777999279 | 18.33° C | 68% | 1004.9 hPa | 0 mm | - | 657 W/m² | - |
| 1777998978 | 17.78° C | 70% | 1005 hPa | 0 mm | - | 651 W/m² | - |
| 1777998675 | 17.22° C | 70% | 1005.3 hPa | 0 mm | - | 604 W/m² | - |
| 1777998372 | 17.22° C | 71% | 1005.3 hPa | 0 mm | - | 630 W/m² | - |
| 1777998070 | 17.78° C | 71% | 1005.4 hPa | 0 mm | - | 634 W/m² | - |
| 1777997767 | 17.22° C | 72% | 1005.4 hPa | 0 mm | - | 399 W/m² | - |
| 1777997464 | 17.22° C | 71% | 1005.6 hPa | 0 mm | - | 524 W/m² | - |
| 1777997162 | 17.22° C | 70% | 1005.7 hPa | 0 mm | - | 609 W/m² | - |
| 1777996859 | 17.22° C | 72% | 1005.7 hPa | 0 mm | - | 636 W/m² | - |
| 1777996555 | 17.22° C | 71% | 1005.8 hPa | 0 mm | - | 636 W/m² | - |
* Rain latest hour (hover to see other rain measurements)
** Current wind speed in m/s (hover to see current wind gust speed)